• In Spain
  • List of Countries
  • For 7 days
  • Water Temperature
  • Satellite Maps
  • Weather Map
  • Weather Widgets
  • user-avatar
    Login

    Hourly Weather Gabrovo

    Today, 15 November, Thursday

    Time Temperature Precipitation Wind Pressure Humidity
    00:00 +7°C° 0 mm 1 mps 705 mmHg 81%
    01:00 +7°C° 0 mm 1 mps 705 mmHg 81%
    02:00 +7°C° 0 mm 1 mps 705 mmHg 81%
    03:00 +7°C° 0.4 mm 1 mps 705 mmHg 82%
    04:00 +7°C° 0.4 mm 1 mps 705 mmHg 84%
    05:00 +6°C° 0.4 mm 1 mps 705 mmHg 85%
    06:00 +6°C° 1.4 mm 1 mps 705 mmHg 86%
    07:00 +6°C° 1.4 mm 1 mps 705 mmHg 86%
    08:00 +5°C° 1.4 mm 2 mps 705 mmHg 86%
    09:00 +5°C° 0.3 mm 2 mps 705 mmHg 80%
    10:00 +6°C° 0.3 mm 2 mps 706 mmHg 74%
    11:00 +7°C° 0.3 mm 2 mps 706 mmHg 68%
    12:00 +7°C° 0.2 mm 2 mps 706 mmHg 64%
    13:00 +8°C° 0.2 mm 2 mps 706 mmHg 60%
    14:00 +8°C° 0.2 mm 3 mps 706 mmHg 56%
    15:00 +7°C° 0.1 mm 2 mps 705 mmHg 60%
    16:00 +7°C° 0.1 mm 2 mps 705 mmHg 63%
    17:00 +7°C° 0.1 mm 1 mps 705 mmHg 66%
    18:00 +6°C° 0 mm 1 mps 705 mmHg 68%
    19:00 +6°C° 0 mm 1 mps 705 mmHg 70%
    20:00 +6°C° 0 mm 1 mps 706 mmHg 72%
    21:00 +5°C° 0 mm 1 mps 706 mmHg 73%
    22:00 +5°C° 0 mm 1 mps 706 mmHg 74%
    23:00 +5°C° 0 mm 1 mps 706 mmHg 74%

    Tomorrow, 16 November, Friday

    Time Temperature Precipitation Wind Pressure Humidity
    00:00 +4°C° 0 mm 1 mps 706 mmHg 76%
    01:00 +4°C° 0 mm 1 mps 706 mmHg 78%
    02:00 +3°C° 0 mm 1 mps 706 mmHg 80%
    03:00 +3°C° 0.1 mm 1 mps 706 mmHg 81%
    04:00 +3°C° 0.1 mm 1 mps 706 mmHg 81%
    05:00 +2°C° 0.1 mm 1 mps 706 mmHg 82%
    06:00 +2°C° 0 mm 1 mps 707 mmHg 81%
    07:00 +2°C° 0 mm 1 mps 707 mmHg 80%
    08:00 +2°C° 0 mm 1 mps 707 mmHg 79%
    09:00 +2°C° 0 mm 2 mps 708 mmHg 73%
    10:00 +4°C° 0 mm 2 mps 708 mmHg 67%
    11:00 +5°C° 0 mm 2 mps 708 mmHg 62%
    12:00 +4°C° 0 mm 3 mps 708 mmHg 61%
    13:00 +4°C° 0 mm 3 mps 708 mmHg 60%
    14:00 +4°C° 0 mm 3 mps 708 mmHg 59%
    15:00 +3°C° 0 mm 3 mps 708 mmHg 62%
    16:00 +2°C° 0 mm 3 mps 708 mmHg 66%
    17:00 +3°C° 0 mm 2 mps 708 mmHg 69%
    18:00 +2°C° 0 mm 2 mps 708 mmHg 71%
    19:00 +2°C° 0 mm 2 mps 709 mmHg 73%
    20:00 +1°C° 0 mm 2 mps 709 mmHg 75%
    21:00 +1°C° 0 mm 2 mps 709 mmHg 75%
    22:00 -1°C° 0 mm 2 mps 709 mmHg 75%
    23:00 +1°C° 0 mm 1 mps 709 mmHg 76%

    Day after tomorrow, 17 November, Saturday

    Time Temperature Precipitation Wind Pressure Humidity
    00:00 +1°C° 0 mm 1 mps 709 mmHg 77%
    01:00 0°C° 0 mm 1 mps 709 mmHg 78%
    02:00 0°C° 0 mm 1 mps 709 mmHg 80%
    03:00 0°C° 0 mm 1 mps 709 mmHg 81%
    04:00 -1°C° 0 mm 1 mps 709 mmHg 82%
    05:00 -1°C° 0 mm 1 mps 709 mmHg 83%
    06:00 -1°C° 0 mm 1 mps 709 mmHg 82%
    07:00 0°C° 0 mm 1 mps 709 mmHg 81%
    08:00 0°C° 0 mm 1 mps 710 mmHg 80%
    09:00 +1°C° 0 mm 1 mps 710 mmHg 74%
    10:00 +2°C° 0 mm 1 mps 710 mmHg 68%
    11:00 +2°C° 0 mm 2 mps 710 mmHg 62%
    12:00 +3°C° 0 mm 2 mps 709 mmHg 61%
    13:00 +3°C° 0 mm 2 mps 709 mmHg 60%
    14:00 +4°C° 0 mm 2 mps 709 mmHg 59%
    15:00 +3°C° 0 mm 2 mps 709 mmHg 63%
    16:00 +2°C° 0 mm 2 mps 709 mmHg 67%
    17:00 +2°C° 0 mm 2 mps 709 mmHg 71%
    18:00 +2°C° 0 mm 2 mps 709 mmHg 72%
    19:00 +1°C° 0 mm 2 mps 709 mmHg 74%
    20:00 +1°C° 0 mm 2 mps 709 mmHg 75%
    21:00 +2°C° 0 mm 1 mps 709 mmHg 76%
    22:00 +2°C° 0 mm 1 mps 709 mmHg 77%
    23:00 +2°C° 0 mm 1 mps 709 mmHg 77%

    18 November, Sunday

    Time Temperature Precipitation Wind Pressure Humidity
    00:00 +2°C° 0 mm 1 mps 708 mmHg 78%
    01:00 +2°C° 0 mm 1 mps 708 mmHg 78%
    02:00 +2°C° 0 mm 1 mps 708 mmHg 78%
    03:00 +1°C° 0 mm 1 mps 708 mmHg 79%
    04:00 +1°C° 0 mm 1 mps 707 mmHg 79%
    05:00 +1°C° 0 mm 1 mps 707 mmHg 79%
    06:00 +1°C° 0 mm 1 mps 707 mmHg 78%
    07:00 +1°C° 0 mm 1 mps 707 mmHg 77%
    08:00 +1°C° 0 mm 1 mps 707 mmHg 76%
    09:00 +2°C° 0 mm 1 mps 707 mmHg 72%
    10:00 +3°C° 0 mm 1 mps 707 mmHg 67%
    11:00 +4°C° 0 mm 1 mps 707 mmHg 62%
    12:00 +5°C° 0 mm 1 mps 706 mmHg 61%
    13:00 +5°C° 0 mm 1 mps 706 mmHg 59%
    14:00 +6°C° 0 mm 1 mps 705 mmHg 57%
    15:00 +5°C° 0 mm 1 mps 705 mmHg 60%
    16:00 +4°C° 0 mm 1 mps 704 mmHg 63%
    17:00 +4°C° 0 mm 1 mps 704 mmHg 66%
    18:00 +3°C° 0 mm 1 mps 703 mmHg 67%
    19:00 +3°C° 0 mm 1 mps 703 mmHg 68%
    20:00 +3°C° 0 mm 1 mps 703 mmHg 69%
    21:00 +3°C° 0 mm 1 mps 703 mmHg 70%
    22:00 +3°C° 0 mm 1 mps 702 mmHg 70%
    23:00 +2°C° 0 mm 1 mps 702 mmHg 71%

    19 November, Monday

    Time Temperature Precipitation Wind Pressure Humidity
    00:00 +2°C° 0.2 mm 1 mps 702 mmHg 72%
    01:00 +1°C° 0.2 mm 0 mps 701 mmHg 73%
    02:00 +1°C° 0.2 mm 0 mps 701 mmHg 74%
    03:00 +1°C° 0.2 mm 0 mps 700 mmHg 75%
    04:00 +1°C° 0.2 mm 0 mps 700 mmHg 76%
    05:00 +1°C° 0.2 mm 0 mps 700 mmHg 77%
    06:00 +1°C° 0.1 mm 0 mps 700 mmHg 78%
    07:00 +2°C° 0.1 mm 1 mps 700 mmHg 79%
    08:00 +2°C° 0.1 mm 1 mps 700 mmHg 80%
    09:00 +3°C° 0.1 mm 1 mps 700 mmHg 78%
    10:00 +4°C° 0.1 mm 1 mps 700 mmHg 77%
    11:00 +4°C° 0.1 mm 1 mps 700 mmHg 76%
    12:00 +5°C° 0.1 mm 1 mps 700 mmHg 76%
    13:00 +4°C° 0.1 mm 2 mps 700 mmHg 77%
    14:00 +4°C° 0.1 mm 2 mps 699 mmHg 77%
    15:00 +5°C° 0 mm 1 mps 699 mmHg 80%
    16:00 +5°C° 0 mm 1 mps 699 mmHg 83%
    17:00 +4°C° 0 mm 1 mps 699 mmHg 86%
    18:00 +4°C° 0 mm 1 mps 700 mmHg 87%
    19:00 +4°C° 0 mm 1 mps 700 mmHg 89%
    20:00 +4°C° 0 mm 1 mps 700 mmHg 90%
    21:00 +4°C° 0 mm 1 mps 700 mmHg 91%
    22:00 +4°C° 0 mm 1 mps 700 mmHg 92%
    23:00 +4°C° 0 mm 0 mps 701 mmHg 93%

    20 November, Tuesday

    Time Temperature Precipitation Wind Pressure Humidity
    00:00 +3°C° 0 mm 0 mps 701 mmHg 94%
    01:00 +3°C° 0 mm 0 mps 701 mmHg 94%
    02:00 +3°C° 0 mm 0 mps 701 mmHg 95%
    03:00 +3°C° 0 mm 0 mps 701 mmHg 95%
    04:00 +4°C° 0 mm 1 mps 701 mmHg 95%
    05:00 +5°C° 0 mm 1 mps 701 mmHg 95%
    06:00 +5°C° 0 mm 1 mps 701 mmHg 95%
    07:00 +5°C° 0 mm 1 mps 701 mmHg 94%
    08:00 +5°C° 0 mm 1 mps 701 mmHg 94%
    09:00 +6°C° 0 mm 2 mps 701 mmHg 90%
    10:00 +7°C° 0 mm 3 mps 701 mmHg 85%
    11:00 +8°C° 0 mm 3 mps 701 mmHg 81%
    12:00 +8°C° 0.1 mm 3 mps 700 mmHg 80%
    13:00 +9°C° 0.1 mm 3 mps 700 mmHg 80%
    14:00 +9°C° 0.1 mm 3 mps 700 mmHg 79%
    15:00 +9°C° 0.1 mm 3 mps 700 mmHg 82%
    16:00 +8°C° 0.1 mm 3 mps 699 mmHg 86%
    17:00 +8°C° 0.1 mm 2 mps 699 mmHg 89%
    18:00 +8°C° 0 mm 3 mps 699 mmHg 90%
    19:00 +8°C° 0 mm 3 mps 699 mmHg 90%
    20:00 +8°C° 0 mm 3 mps 699 mmHg 91%
    21:00 +9°C° 0.3 mm 3 mps 698 mmHg 91%
    22:00 +9°C° 0.3 mm 3 mps 698 mmHg 91%
    23:00 +9°C° 0.3 mm 3 mps 698 mmHg 91%
    Show more